Printer-friendly version

IAU Minor Planet Center

Minor Planet Center

MPEC 2004-E35 : 2004 EC

The following Minor Planet Electronic Circular may be linked-to from your own Web pages, but must not otherwise be redistributed electronically.


Read MPEC 2004-E34 Read MPEC 2004-E36


M.P.E.C. 2004-E35                                Issued 2004 Mar. 11, 13:19 UT

     The Minor Planet Electronic Circulars contain information on unusual
         minor planets and routine data on comets.  They are published
   on behalf of Commission 20 of the International Astronomical Union by the
          Minor Planet Center, Smithsonian Astrophysical Observatory,
                          Cambridge, MA 02138, U.S.A.

         Supported in part by the Steven and Michele Kirsch Foundation
             Prepared using the Tamkin Foundation Computer Network

                              MPC@CFA.HARVARD.EDU
          URL http://cfa-www.harvard.edu/iau/mpc.html  ISSN 1523-6714

                                    2004 EC

Observations:
     K04E00C* C2004 03 10.43839 18 42 06.03 +65 43 09.1          16.8   EE035704
     K04E00C  C2004 03 10.46055 18 41 40.94 +65 45 22.0          17.0   EE035704
     K04E00C  C2004 03 10.47193 18 41 28.10 +65 46 30.3          16.7   EE035704
     K04E00C  C2004 03 10.48281 18 41 15.66 +65 47 35.5          16.8   EE035704
     K04E00C  C2004 03 11.07436 18 29 45.33 +66 44 04.4                 EE035557
     K04E00C  C2004 03 11.07501 18 29 44.56 +66 44 08.1                 EE035557
     K04E00C  C2004 03 11.07601 18 29 43.33 +66 44 13.8                 EE035557
     K04E00C  C2004 03 11.07730 18 29 41.79 +66 44 21.0          16.2 V EE035557
     K04E00C  C2004 03 11.50069 18 20 55.08 +67 22 54.9          16.3 R EE035926
     K04E00C  C2004 03 11.50141 18 20 54.13 +67 22 58.6          16.2 R EE035926
     K04E00C  C2004 03 11.50207 18 20 53.20 +67 23 02.2          16.2 R EE035926
     K04E00C 5C2004 03 11.50230 18 20 53.24 +67 23 01.6          16.5 R EE035673
     K04E00C 5C2004 03 11.50359 18 20 51.53 +67 23 08.7                 EE035673
     K04E00C 5C2004 03 11.50567 18 20 48.89 +67 23 19.8                 EE035673
     K04E00C 5C2004 03 11.50880 18 20 44.84 +67 23 36.4                 EE035673
     K04E00C 5C2004 03 11.51123 18 20 41.73 +67 23 49.3                 EE035673
     K04E00C 5C2004 03 11.51539 18 20 36.31 +67 24 11.8                 EE035673

Observer details:
557 Ondrejov.  Observer L. Sarounova.  0.65-m f/3.6 reflector + CCD.
673 Table Mountain Observatory, Wrightwood.  Observer J. Young.  0.6-m
    reflector + CCD.
704 Lincoln Laboratory ETS, New Mexico.  Observers M. Blythe, F. Shelly,
    M. Bezpalko, R. Huber, L. Manguso, D. Torres, R. Kracke, M. McCleary,
    H. Stange, A. Milner.  Measurers J. Stuart, R. Sayer, J. Evans, J. Kommers.
    1.0-m f/2.15 reflector + CCD.
926 Tenagra II Observatory.  Observers P. R. Holvorcem, M. Schwartz.  0.81-m
    f/7 Ritchey-Chretien + CCD.

Orbital elements:
2004 EC
Epoch 2004 Feb. 25.0 TT = JDT 2453060.5                 MPC
M  12.72819              (2000.0)            P               Q
n   0.41914412     Peri.    7.21827     +0.78950555     -0.54717589
a   1.7683184      Node    31.57003     +0.53322266     +0.38725043
e   0.8395316      Incl.   32.07202     +0.30389896     +0.74204828
P   2.35           H   15.8           G   0.15
From 17 observations 2004 Mar. 10-11.

Ephemeris:
2004 EC                  a,e,i = 1.77, 0.84, 32                  q = 0.2838
Date    TT    R. A. (2000) Decl.     Delta      r     Elong.  Phase     V
2004 03 06    19 45.12   +57 24.5    0.405    0.970    75.1    81.1    16.6
2004 03 16    16 21.4    +71 36.6    0.415    1.130    98.0    60.6    16.3
2004 03 26    12 41.49   +63 36.0    0.489    1.278   114.1    45.5    16.5
2004 04 05    11 36.48   +50 48.9    0.614    1.414   120.5    37.6    17.0
2004 04 15    11 15.06   +40 58.4    0.772    1.542   120.0    34.3    17.6
2004 04 25    11 08.02   +33 43.1    0.953    1.661   116.0    33.0    18.2
2004 05 05    11 07.57   +28 12.0    1.149    1.773   110.3    32.2    18.7
2004 05 15    11 10.72   +23 49.1    1.355    1.878   104.1    31.5    19.2
2004 05 25    11 16.13   +20 11.5    1.569    1.977    97.6    30.5    19.6
2004 06 04    11 23.05   +17 05.1    1.786    2.070    91.0    29.3    19.9
2004 06 14    11 31.02   +14 20.8    2.004    2.159    84.5    27.9    20.2
2004 06 24    11 39.77   +11 52.3    2.221    2.242    78.0    26.3    20.5
2004 07 04    11 49.10   +09 35.7    2.433    2.321    71.5    24.6    20.7
2004 07 14    11 58.87   +07 28.4    2.639    2.396    65.1    22.6    20.9

Timothy B. Spahr             (C) Copyright 2004 MPC           M.P.E.C. 2004-E35

Read MPEC 2004-E34 Read MPEC 2004-E36


Our Web policy. Index to the CBAT/MPC/ICQ pages.


Valid HTML 4.01!